{"data":{"norad_id":66164,"intl_designator":"2025-240U","name":"STARLINK-35614","alt_names":[],"object_type":"PAYLOAD","status":"ACTIVE","operator":null,"country":"US","launch_date":"2025-10-25","launch_site_code":"AFWTR","launch_vehicle":null,"mission":null,"orbit_class":"UNKNOWN","rcs_meters":null,"size_class":null,"mass_kg":null,"dimensions":null,"purposes":["comms"],"wikipedia_slug":null,"has_3d_model":false,"image_url":null,"decayed_at":null,"tle_current":{"epoch":"2026-09-19T15:45:08.964864Z","epoch_age_seconds":173319,"freshness":"STALE","line1":"1 66164U 25240U   26262.65635376  .00007039  00000+0  21937-3 0  9998","line2":"2 66164  53.1599 237.7324 0001576  90.9384 269.1799 15.34387795 51749","mean_motion":15.34387795,"eccentricity":0.0001576,"inclination_deg":53.1599,"raan_deg":237.7324,"arg_perigee_deg":90.9384,"mean_anomaly_deg":269.1799,"bstar":0.00021937,"rev_number":5174,"period_min":93.848504575729,"perigee_km":461.66139414068,"apogee_km":463.81763841862,"semimajor_km":6840.8765162796,"source":"CELESTRAK","updated_at":"2026-09-21T09:00:35.815986Z"}}}